Orbital Elements at Epoch 2459200.5 (2020-Dec-17.0) TDB
Reference: JPL 38 (heliocentric ecliptic J2000)
Element | Value | Uncertainty (1-sigma) | Units |
e | .1081665115718048 | 3.4266e-08 | |
a | 3.165157951971392 | 1.6333e-08 | au |
q | 2.822793857732889 | 1.1215e-07 | au |
i | 5.715770998401445 | 3.4837e-06 | deg |
node | 171.2574381630988 | 3.8877e-05 | deg |
peri | 84.14791374143185 | 4.3904e-05 | deg |
M | 26.10883605802759 | 1.796e-05 | deg |
tp | 2459051.331707386388 (2020-Jul-20.83170739) | 0.00010291 | TDB |
period | 2056.797370114445 5.63 | 1.592e-05 4.359e-08 | d yr |
n | .1750293953263703 | 1.3548e-09 | deg/d |
Q | 3.507522046209895 | 1.8099e-08 | au |
|
| | Orbit Determination Parameters
Additional Information
|